Weather History for Mammoth, CA

Change the Weather History Date:

Wednesday, January 15, 2014

  Actual Average Record
Temperature  
Mean Temperature 36 °F -  
Max Temperature 59 °F 35 °F 59 °F (2014)
Min Temperature 12 °F 20 °F 12 °F (2014)
Degree Days  
Heating Degree Days 30    
Moisture  
Dew Point 0 °F    
Average Humidity 29    
Maximum Humidity 57    
Minimum Humidity 7    
Precipitation  
Precipitation 0.00 in - - ()
Sea Level Pressure  
Sea Level Pressure 30.56 in    
Wind  
Wind Speed 2 mph (North)    
Max Wind Speed 12 mph    
Max Gust Speed 16 mph    
Visibility 10 miles    
Events      
Averages and records for this station are not official NWS values.
T = Trace of Precipitation, MM = Missing Value Source: NWS Daily Summary

Daily Weather History Graph

Daily Weather History Graph

Search for Another Location

Airport:

Trip Planner

Search our weather history database for the weather conditions in past years. The results will help you decide how hot, cold, wet, or windy it might be!

Date:

Astronomy

Jan. 15, 2014 Rise Set
Actual Time 7:09 AM PST 5:00 PM PST
Civil Twilight 6:40 AM PST 5:29 PM PST
Nautical Twilight 6:08 AM PST 6:01 PM PST
Astronomical Twilight 5:36 AM PST 6:33 PM PST
Moon 5:01 PM PST (1/15) 6:29 AM PST (1/15)
Length of Visible Light 10h 48m
Length of Day
9h 51m
Full, 100% of the Moon is Illuminated
Jan 15
Full
Jan 15
Full
Jan 23
Last Quarter
Jan 30
New
Feb 6
First Quarter

Hourly Weather History & Observations

Time (PST) Temp. Windchill Dew Point Humidity Pressure Visibility Wind Dir Wind Speed Gust Speed Precip Events Conditions
12:15 AM 26.6 °F 21.2 °F 3.2 °F 37% 30.62 in 10.0 mi WNW 4.6 mph - N/A   Clear
12:35 AM 26.6 °F - 3.2 °F 37% 30.62 in 10.0 mi Calm Calm - N/A   Clear
12:55 AM 28.4 °F - 3.2 °F 34% 30.62 in 10.0 mi Calm Calm - N/A   Clear
1:15 AM 23.0 °F - -0.4 °F 36% 30.62 in 10.0 mi Calm Calm - N/A   Clear
1:35 AM 23.0 °F 18.4 °F 1.4 °F 39% 30.62 in 10.0 mi North 3.5 mph - N/A   Clear
1:55 AM 21.2 °F 14.9 °F 3.2 °F 46% 30.62 in 10.0 mi North 4.6 mph - N/A   Clear
2:15 AM 19.4 °F 14.3 °F 3.2 °F 49% 30.61 in 10.0 mi North 3.5 mph - N/A   Clear
2:35 AM 23.0 °F - 3.2 °F 43% 30.61 in 10.0 mi Calm Calm - N/A   Clear
2:55 AM 19.4 °F - 1.4 °F 46% 30.62 in 10.0 mi Calm Calm - N/A   Clear
3:15 AM 19.4 °F 14.3 °F 1.4 °F 46% 30.60 in 10.0 mi NW 3.5 mph - N/A   Clear
3:35 AM 15.8 °F 10.2 °F 1.4 °F 53% 30.61 in 10.0 mi West 3.5 mph - N/A   Clear
3:55 AM 12.2 °F 4.3 °F -2.2 °F 53% 30.60 in 10.0 mi North 4.6 mph - N/A   Clear
4:15 AM 14.0 °F 8.2 °F 1.4 °F 57% 30.60 in 10.0 mi NNW 3.5 mph - N/A   Clear
4:35 AM 15.8 °F - 1.4 °F 53% 30.59 in 10.0 mi Calm Calm - N/A   Clear
4:55 AM 15.8 °F - -0.4 °F 49% 30.59 in 10.0 mi Calm Calm - N/A   Clear
5:15 AM 15.8 °F - 1.4 °F 53% 30.59 in 10.0 mi Calm Calm - N/A   Clear
5:35 AM 17.6 °F - 1.4 °F 49% 30.58 in 10.0 mi Calm Calm - N/A   Clear
5:55 AM 17.6 °F - -0.4 °F 45% 30.59 in 10.0 mi Calm Calm - N/A   Clear
6:15 AM 17.6 °F - 1.4 °F 49% 30.59 in 10.0 mi Calm Calm - N/A   Clear
6:35 AM 15.8 °F - -0.4 °F 49% 30.59 in 10.0 mi Calm Calm - N/A   Clear
6:55 AM 14.0 °F - -0.4 °F 53% 30.59 in 10.0 mi Calm Calm - N/A   Clear
7:15 AM 17.6 °F - -0.4 °F 45% 30.59 in 10.0 mi Calm Calm - N/A   Clear
7:35 AM 19.4 °F - 1.4 °F 46% 30.59 in 10.0 mi Calm Calm - N/A   Clear
7:55 AM 15.8 °F - 1.4 °F 53% 30.60 in 10.0 mi Calm Calm - N/A   Clear
8:15 AM 21.2 °F 16.4 °F 1.4 °F 42% 30.60 in 10.0 mi North 3.5 mph - N/A   Clear
8:35 AM 24.8 °F 20.5 °F 1.4 °F 36% 30.60 in 10.0 mi North 3.5 mph - N/A   Clear
8:55 AM 28.4 °F - 3.2 °F 34% 30.61 in 10.0 mi Calm Calm - N/A   Clear
9:15 AM 32.0 °F 28.7 °F 3.2 °F 30% 30.61 in 10.0 mi SSE 3.5 mph - N/A   Clear
9:35 AM 35.6 °F - 3.2 °F 26% 30.61 in 10.0 mi Calm Calm - N/A   Clear
9:55 AM 39.2 °F 37.0 °F 3.2 °F 22% 30.62 in 10.0 mi SE 3.5 mph - N/A   Clear
10:15 AM 41.0 °F - 3.2 °F 21% 30.61 in 10.0 mi Calm Calm - N/A   Clear
10:35 AM 44.6 °F 42.2 °F 3.2 °F 18% 30.61 in 10.0 mi SE 4.6 mph - N/A   Clear
10:55 AM 44.6 °F 40.7 °F 5.0 °F 20% 30.59 in 10.0 mi SE 6.9 mph - N/A   Clear
11:15 AM 48.2 °F - 5.0 °F 17% 30.58 in 10.0 mi SE 4.6 mph - N/A   Clear
11:35 AM 51.8 °F - 3.2 °F 14% 30.57 in 7.0 mi SE 3.5 mph - N/A   Clear
11:55 AM 53.6 °F - -0.4 °F 11% 30.56 in 10.0 mi SE 3.5 mph - N/A   Clear
12:15 PM 55.4 °F - -9.4 °F 7% 30.54 in 10.0 mi Calm Calm - N/A   Clear
12:35 PM 55.4 °F - -9.4 °F 7% 30.53 in 10.0 mi Calm Calm - N/A   Clear
12:55 PM 57.2 °F - -7.6 °F 7% 30.52 in 10.0 mi Calm Calm - N/A   Clear
1:15 PM 57.2 °F - -4.0 °F 8% 30.51 in 10.0 mi SE 6.9 mph - N/A   Clear
1:35 PM 57.2 °F - -5.8 °F 8% 30.51 in 10.0 mi SE 4.6 mph - N/A   Clear
1:55 PM 57.2 °F - -4.0 °F 8% 30.50 in 10.0 mi Calm Calm - N/A   Clear
2:15 PM 57.2 °F - -4.0 °F 8% 30.50 in 10.0 mi ESE 4.6 mph - N/A   Clear
2:35 PM 59.0 °F - -4.0 °F 8% 30.50 in 10.0 mi NE 8.1 mph - N/A   Clear
2:55 PM 57.2 °F - -4.0 °F 8% 30.51 in 10.0 mi NNE 8.1 mph - N/A   Clear
3:15 PM 57.2 °F - -2.2 °F 9% 30.51 in 10.0 mi North 10.4 mph - N/A   Clear
3:35 PM 55.4 °F - -0.4 °F 10% 30.52 in 10.0 mi North 11.5 mph 16.1 mph N/A   Clear
3:55 PM 55.4 °F - -0.4 °F 10% 30.52 in 10.0 mi NNW 8.1 mph - N/A   Clear
4:15 PM 51.8 °F - 1.4 °F 13% 30.51 in 10.0 mi NNW 4.6 mph - N/A   Clear
4:35 PM 48.2 °F - 1.4 °F 15% 30.51 in 10.0 mi NW 4.6 mph - N/A   Clear
4:55 PM 44.6 °F 41.4 °F -2.2 °F 14% 30.51 in 10.0 mi WSW 5.8 mph - N/A   Clear
5:15 PM 44.6 °F - -0.4 °F 15% 30.51 in 10.0 mi Calm Calm - N/A   Clear
5:35 PM 41.0 °F 37.1 °F -0.4 °F 18% 30.51 in 10.0 mi SW 5.8 mph - N/A   Clear
5:55 PM 35.6 °F - -4.0 °F 18% 30.51 in 10.0 mi Calm Calm - N/A   Clear
6:15 PM 37.4 °F - -2.2 °F 19% 30.51 in 10.0 mi Calm Calm - N/A   Clear
6:35 PM 37.4 °F 34.9 °F -4.0 °F 17% 30.51 in 10.0 mi WNW 3.5 mph - N/A   Clear
6:55 PM 35.6 °F - -4.0 °F 18% 30.52 in 10.0 mi Calm Calm - N/A   Clear
7:15 PM 33.8 °F - -2.2 °F 22% 30.52 in 10.0 mi Calm Calm - N/A   Clear
7:35 PM 33.8 °F 30.8 °F -2.2 °F 22% 30.52 in 10.0 mi North 3.5 mph - N/A   Clear
7:55 PM 32.0 °F - -2.2 °F 23% 30.53 in 10.0 mi Calm Calm - N/A   Clear
8:15 PM 32.0 °F - -2.2 °F 23% 30.52 in 10.0 mi Calm Calm - N/A   Clear
8:35 PM 32.0 °F 28.7 °F -2.2 °F 23% 30.52 in 10.0 mi North 3.5 mph - N/A   Clear
8:55 PM 32.0 °F 28.7 °F -0.4 °F 25% 30.53 in 10.0 mi NNW 3.5 mph - N/A   Clear
9:15 PM 32.0 °F 28.7 °F -0.4 °F 25% 30.53 in 10.0 mi North 3.5 mph - N/A   Clear
9:35 PM 30.2 °F 26.7 °F 1.4 °F 29% 30.54 in 10.0 mi NW 3.5 mph - N/A   Clear
9:55 PM 30.2 °F - 1.4 °F 29% 30.53 in 10.0 mi Calm Calm - N/A   Clear
10:15 PM 26.6 °F - -0.4 °F 31% 30.53 in 10.0 mi Calm Calm - N/A   Clear
10:35 PM 28.4 °F - 1.4 °F 31% 30.53 in 10.0 mi Calm Calm - N/A   Clear
10:55 PM 28.4 °F 24.6 °F 1.4 °F 31% 30.53 in 10.0 mi WNW 3.5 mph - N/A   Clear
11:15 PM 26.6 °F 22.6 °F -0.4 °F 31% 30.53 in 10.0 mi NNW 3.5 mph - N/A   Clear
11:35 PM 28.4 °F 24.6 °F -0.4 °F 29% 30.53 in 10.0 mi NNW 3.5 mph - N/A   Clear
11:55 PM 28.4 °F 24.6 °F 1.4 °F 31% 30.53 in 10.0 mi NNW 3.5 mph - N/A   Clear